When you browse on this site, cookies collect data to enhance your experience and personalize the content and advertising you see.
Visit our Privacy Policy to learn more. By continuing to use the site, you agree to this use of cookies and data.
  • In Österreich
  • Länderverzeichnis
  • Für 7 Tage
  • Wassertemperatur
  • Wetterkarte
  • News
  • Widgets
  • user-avatar
    Anmelden

    Stündliche Wetter Lyubozherde

    Heute, 21 Oktober, Montag

    Zeit Temperatur Niederschläge Wind Luftdruck Luftfeuchtigkeit
    00:00 +14°C° 0 mm 2 m/S 751 mmHg 81%
    01:00 +14°C° 0 mm 2 m/S 752 mmHg 82%
    02:00 +12°C° 0 mm 3 m/S 752 mmHg 82%
    03:00 +12°C° 0 mm 3 m/S 752 mmHg 83%
    04:00 +13°C° 0 mm 2 m/S 752 mmHg 83%
    05:00 +13°C° 0 mm 2 m/S 751 mmHg 84%
    06:00 +13°C° 0 mm 2 m/S 752 mmHg 83%
    07:00 +13°C° 0 mm 2 m/S 752 mmHg 82%
    08:00 +14°C° 0 mm 2 m/S 752 mmHg 79%
    09:00 +15°C° 0 mm 2 m/S 752 mmHg 73%
    10:00 +17°C° 0 mm 2 m/S 752 mmHg 66%
    11:00 +19°C° 0 mm 2 m/S 752 mmHg 60%
    12:00 +20°C° 0 mm 2 m/S 752 mmHg 58%
    13:00 +20°C° 0 mm 2 m/S 752 mmHg 56%
    14:00 +21°C° 0 mm 2 m/S 752 mmHg 54%
    15:00 +20°C° 0 mm 2 m/S 752 mmHg 60%
    16:00 +19°C° 0 mm 1 m/S 752 mmHg 65%
    17:00 +18°C° 0 mm 1 m/S 752 mmHg 71%
    18:00 +16°C° 0 mm 1 m/S 752 mmHg 74%
    19:00 +15°C° 0 mm 1 m/S 753 mmHg 77%
    20:00 +14°C° 0 mm 0 m/S 753 mmHg 81%
    21:00 +13°C° 0 mm 0 m/S 753 mmHg 82%
    22:00 +13°C° 0 mm 0 m/S 753 mmHg 84%
    23:00 +13°C° 0 mm 0 m/S 753 mmHg 85%

    Morgen, 22 Oktober, Dienstag

    Zeit Temperatur Niederschläge Wind Luftdruck Luftfeuchtigkeit
    00:00 +12°C° 0 mm 0 m/S 753 mmHg 86%
    01:00 +12°C° 0 mm 0 m/S 754 mmHg 86%
    02:00 +12°C° 0 mm 0 m/S 754 mmHg 87%
    03:00 +12°C° 0 mm 0 m/S 754 mmHg 87%
    04:00 +11°C° 0 mm 0 m/S 754 mmHg 87%
    05:00 +11°C° 0 mm 0 m/S 754 mmHg 88%
    06:00 +12°C° 0 mm 0 m/S 754 mmHg 87%
    07:00 +12°C° 0 mm 0 m/S 754 mmHg 86%
    08:00 +13°C° 0 mm 1 m/S 754 mmHg 85%
    09:00 +15°C° 0 mm 1 m/S 754 mmHg 79%
    10:00 +16°C° 0 mm 1 m/S 754 mmHg 73%
    11:00 +19°C° 0 mm 1 m/S 755 mmHg 67%
    12:00 +19°C° 0 mm 1 m/S 754 mmHg 65%
    13:00 +20°C° 0 mm 1 m/S 754 mmHg 62%
    14:00 +21°C° 0 mm 1 m/S 754 mmHg 59%
    15:00 +18°C° 0 mm 0 m/S 754 mmHg 65%
    16:00 +16°C° 0 mm 0 m/S 754 mmHg 72%
    17:00 +15°C° 0 mm 0 m/S 753 mmHg 78%
    18:00 +14°C° 0 mm 0 m/S 753 mmHg 80%
    19:00 +14°C° 0 mm 0 m/S 754 mmHg 82%
    20:00 +13°C° 0 mm 0 m/S 754 mmHg 84%
    21:00 +14°C° 0 mm 1 m/S 753 mmHg 85%
    22:00 +14°C° 0 mm 1 m/S 753 mmHg 86%
    23:00 +13°C° 0 mm 1 m/S 753 mmHg 87%

    übermorgen, 23 Oktober, Mittwoch

    Zeit Temperatur Niederschläge Wind Luftdruck Luftfeuchtigkeit
    00:00 +13°C° 0 mm 1 m/S 753 mmHg 88%
    01:00 +13°C° 0 mm 1 m/S 753 mmHg 89%
    02:00 +13°C° 0 mm 1 m/S 753 mmHg 89%
    03:00 +12°C° 0 mm 1 m/S 753 mmHg 90%
    04:00 +12°C° 0 mm 1 m/S 752 mmHg 90%
    05:00 +12°C° 0 mm 1 m/S 752 mmHg 91%
    06:00 +12°C° 0 mm 1 m/S 752 mmHg 91%
    07:00 +12°C° 0 mm 1 m/S 752 mmHg 91%
    08:00 +12°C° 0 mm 1 m/S 752 mmHg 91%
    09:00 +14°C° 0 mm 1 m/S 752 mmHg 85%
    10:00 +15°C° 0 mm 1 m/S 752 mmHg 79%
    11:00 +16°C° 0 mm 1 m/S 752 mmHg 73%
    12:00 +18°C° 0 mm 1 m/S 752 mmHg 70%
    13:00 +18°C° 0 mm 2 m/S 752 mmHg 67%
    14:00 +19°C° 0 mm 2 m/S 752 mmHg 64%
    15:00 +18°C° 0 mm 2 m/S 752 mmHg 70%
    16:00 +17°C° 0 mm 2 m/S 752 mmHg 76%
    17:00 +15°C° 0 mm 2 m/S 752 mmHg 82%
    18:00 +15°C° 0 mm 2 m/S 752 mmHg 85%
    19:00 +14°C° 0 mm 2 m/S 753 mmHg 89%
    20:00 +13°C° 0 mm 2 m/S 753 mmHg 93%
    21:00 +12°C° 0 mm 2 m/S 753 mmHg 94%
    22:00 +12°C° 0 mm 2 m/S 753 mmHg 94%
    23:00 +10°C° 0 mm 2 m/S 753 mmHg 94%

    24 Oktober, Donnerstag

    Zeit Temperatur Niederschläge Wind Luftdruck Luftfeuchtigkeit
    00:00 +10°C° 0 mm 2 m/S 753 mmHg 94%
    01:00 +9°C° 0 mm 2 m/S 753 mmHg 94%
    02:00 +8°C° 0 mm 2 m/S 754 mmHg 94%
    03:00 +8°C° 0 mm 2 m/S 754 mmHg 94%
    04:00 +8°C° 0 mm 2 m/S 753 mmHg 94%
    05:00 +8°C° 0 mm 1 m/S 753 mmHg 94%
    06:00 +7°C° 0 mm 2 m/S 753 mmHg 94%
    07:00 +8°C° 0 mm 2 m/S 753 mmHg 94%
    08:00 +8°C° 0 mm 2 m/S 754 mmHg 93%
    09:00 +9°C° 0 mm 2 m/S 754 mmHg 87%
    10:00 +12°C° 0 mm 2 m/S 754 mmHg 81%
    11:00 +14°C° 0 mm 2 m/S 753 mmHg 74%
    12:00 +15°C° 0 mm 2 m/S 753 mmHg 71%
    13:00 +16°C° 0 mm 2 m/S 753 mmHg 68%
    14:00 +17°C° 0 mm 2 m/S 753 mmHg 65%
    15:00 +16°C° 0 mm 2 m/S 753 mmHg 70%
    16:00 +15°C° 0 mm 2 m/S 753 mmHg 74%
    17:00 +13°C° 0 mm 2 m/S 752 mmHg 79%
    18:00 +13°C° 0 mm 2 m/S 753 mmHg 81%
    19:00 +11°C° 0 mm 3 m/S 753 mmHg 83%
    20:00 +10°C° 0 mm 3 m/S 753 mmHg 86%
    21:00 +10°C° 0 mm 3 m/S 753 mmHg 87%
    22:00 +10°C° 0 mm 3 m/S 753 mmHg 89%
    23:00 +10°C° 0 mm 3 m/S 753 mmHg 91%

    25 Oktober, Freitag

    Zeit Temperatur Niederschläge Wind Luftdruck Luftfeuchtigkeit
    00:00 +10°C° 0 mm 3 m/S 753 mmHg 92%
    01:00 +10°C° 0 mm 3 m/S 753 mmHg 93%
    02:00 +10°C° 0 mm 3 m/S 753 mmHg 95%
    03:00 +9°C° 0 mm 3 m/S 753 mmHg 95%
    04:00 +9°C° 0 mm 3 m/S 753 mmHg 95%
    05:00 +9°C° 0 mm 3 m/S 752 mmHg 95%
    06:00 +9°C° 0 mm 3 m/S 752 mmHg 95%
    07:00 +10°C° 0 mm 3 m/S 752 mmHg 95%
    08:00 +10°C° 0 mm 3 m/S 752 mmHg 94%
    09:00 +12°C° 0 mm 3 m/S 753 mmHg 86%
    10:00 +14°C° 0 mm 3 m/S 753 mmHg 79%
    11:00 +17°C° 0 mm 3 m/S 753 mmHg 71%
    12:00 +18°C° 0 mm 3 m/S 753 mmHg 67%
    13:00 +19°C° 0 mm 3 m/S 752 mmHg 63%
    14:00 +20°C° 0 mm 4 m/S 752 mmHg 59%
    15:00 +18°C° 0 mm 3 m/S 752 mmHg 64%
    16:00 +17°C° 0 mm 2 m/S 752 mmHg 69%
    17:00 +15°C° 0 mm 2 m/S 752 mmHg 74%
    18:00 +15°C° 0 mm 2 m/S 752 mmHg 77%
    19:00 +14°C° 0 mm 2 m/S 752 mmHg 80%
    20:00 +13°C° 0 mm 2 m/S 753 mmHg 83%
    21:00 +13°C° 0 mm 2 m/S 753 mmHg 85%
    22:00 +12°C° 0 mm 2 m/S 753 mmHg 87%
    23:00 +12°C° 0 mm 2 m/S 753 mmHg 89%

    26 Oktober, Samstag

    Zeit Temperatur Niederschläge Wind Luftdruck Luftfeuchtigkeit
    00:00 +12°C° 0 mm 2 m/S 753 mmHg 90%
    01:00 +10°C° 0 mm 2 m/S 754 mmHg 92%
    02:00 +10°C° 0 mm 2 m/S 754 mmHg 93%
    03:00 +10°C° 0 mm 2 m/S 754 mmHg 94%
    04:00 +10°C° 0 mm 2 m/S 754 mmHg 95%
    05:00 +10°C° 0 mm 2 m/S 754 mmHg 95%
    06:00 +11°C° 0 mm 1 m/S 754 mmHg 95%
    07:00 +11°C° 0 mm 1 m/S 755 mmHg 95%
    08:00 +11°C° 0 mm 1 m/S 755 mmHg 95%
    09:00 +13°C° 0 mm 1 m/S 755 mmHg 87%
    10:00 +14°C° 0 mm 1 m/S 755 mmHg 79%
    11:00 +16°C° 0 mm 1 m/S 755 mmHg 71%
    12:00 +15°C° 0 mm 0 m/S 755 mmHg 69%
    13:00 +16°C° 0 mm 0 m/S 755 mmHg 67%
    14:00 +17°C° 0 mm 0 m/S 755 mmHg 64%
    15:00 +16°C° 0 mm 1 m/S 754 mmHg 70%
    16:00 +15°C° 0 mm 1 m/S 754 mmHg 75%
    17:00 +14°C° 0 mm 1 m/S 754 mmHg 80%
    18:00 +13°C° 0 mm 1 m/S 754 mmHg 83%
    19:00 +13°C° 0 mm 1 m/S 754 mmHg 85%
    20:00 +12°C° 0 mm 1 m/S 753 mmHg 88%
    21:00 +12°C° 0 mm 2 m/S 753 mmHg 89%
    22:00 +12°C° 0 mm 2 m/S 753 mmHg 90%
    23:00 +12°C° 0 mm 2 m/S 753 mmHg 91%

    27 Oktober, Sonntag

    Zeit Temperatur Niederschläge Wind Luftdruck Luftfeuchtigkeit
    00:00 +10°C° 0 mm 2 m/S 753 mmHg 92%
    01:00 +10°C° 0 mm 2 m/S 753 mmHg 93%
    02:00 +10°C° 0 mm 3 m/S 752 mmHg 94%
    03:00 +10°C° 0 mm 3 m/S 752 mmHg 94%
    04:00 +10°C° 0 mm 3 m/S 751 mmHg 94%
    05:00 +9°C° 0 mm 3 m/S 751 mmHg 94%
    06:00 +10°C° 0 mm 3 m/S 751 mmHg 93%
    07:00 +10°C° 0 mm 3 m/S 751 mmHg 93%
    08:00 +10°C° 0 mm 3 m/S 751 mmHg 92%
    09:00 +11°C° 0 mm 3 m/S 751 mmHg 85%
    10:00 +13°C° 0 mm 3 m/S 751 mmHg 78%
    11:00 +15°C° 0 mm 4 m/S 750 mmHg 71%
    12:00 +15°C° 0 mm 4 m/S 750 mmHg 69%
    13:00 +17°C° 0 mm 4 m/S 750 mmHg 67%
    14:00 +17°C° 0 mm 5 m/S 750 mmHg 65%
    15:00 +17°C° 0 mm 4 m/S 749 mmHg 70%
    16:00 +16°C° 0 mm 3 m/S 749 mmHg 76%
    17:00 +13°C° 0 mm 3 m/S 749 mmHg 82%
    18:00 +13°C° 0 mm 3 m/S 749 mmHg 83%
    19:00 +12°C° 0 mm 3 m/S 749 mmHg 84%
    20:00 +12°C° 0 mm 3 m/S 749 mmHg 85%
    21:00 +12°C° 0 mm 3 m/S 749 mmHg 86%
    22:00 +11°C° 0 mm 3 m/S 749 mmHg 86%
    23:00 +11°C° 0 mm 3 m/S 749 mmHg 87%
    Mehr zeigen